DW0639 Weather Reports


time (UTC)temp
F
wind
direction
speed
knots
gust
knots
rain 1hr
in
rain 24hr
in
rain mn
in
humidity
%
barometer
mb
20260906052014 77 79 1.7 5.2 0.00 0.27 0.00 1 1014.9
20260906051013 77 74 1.7 7.8 0.00 0.27 0.00 1 1013.9
20260906050013 76 11 1.7 8.7 0.00 0.27 0.27 1 1013.9
20260906044941 75 61 3.5 5.2 0.00 0.27 0.27 1 1013.5
20260906043940 74 237 1.7 6.1 0.00 0.27 0.27 1 1013.5
20260906042908 74 265 0.9 7.0 0.00 0.27 0.27 1 1013.9
20260906041907 74 171 0.9 1.7 0.00 0.27 0.27 1 1013.9
20260906040907 74 134 0.9 0.9 0.00 0.27 0.27 1 1014.2
20260906035906 74 134 0.0 0.9 0.00 0.27 0.27 1 1013.9
20260906034905 74 134 0.9 0.9 0.00 0.27 0.27 1 1013.9
20260906033904 74 134 0.0 0.9 0.00 0.27 0.27 1 1014.2
20260906032904 74 131 0.9 0.9 0.00 0.27 0.27 1 1013.9
20260906031903 74 131 0.0 0.9 0.00 0.27 0.27 1 1014.2
20260906030902 74 131 0.9 0.9 0.00 0.27 0.27 1 1013.9
20260906025902 74 131 0.0 0.9 0.00 0.27 0.27 1 1013.9
20260906024900 74 131 0.0 0.9 0.00 0.27 0.27 1 1013.5
20260906023900 74 131 0.9 1.7 0.00 0.27 0.27 1 1013.9
20260906022859 74 131 0.9 1.7 0.00 0.27 0.27 1 1013.5
20260906021858 74 98 0.9 2.6 0.00 0.27 0.27 1 1013.2
20260906020858 74 77 1.7 2.6 0.00 0.27 0.27 1 1013.2
20260906015857 74 78 0.0 0.9 0.00 0.27 0.27 1 1012.5
20260906014856 74 78 0.0 0.9 0.00 0.27 0.27 1 1012.5
20260906013824 74 76 0.0 0.9 0.00 0.27 0.27 1 1012.5
20260906012824 74 77 0.0 0.9 0.00 0.27 0.27 1 1012.5
20260906011823 74 77 0.0 0.9 0.00 0.27 0.27 1 1012.5
20260906010751 75 76 0.0 0.9 0.00 0.27 0.27 1 1012.9
20260906005750 75 77 0.0 0.9 0.00 0.27 0.27 1 1012.9
20260906004749 75 77 0.0 4.3 0.00 0.27 0.27 1 1012.9
20260906003717 76 77 0.9 4.3 0.00 0.27 0.27 1 1012.5
20260906002645 76 24 0.9 3.5 0.00 0.27 0.27 1 1012.5
20260906001645 77 179 0.9 2.6 0.09 0.27 0.27 1 1012.5
20260906000644 77 352 0.0 1.7 0.23 0.27 0.27 1 1012.5
20260905235643 77 328 0.9 1.7 0.26 0.27 0.27 1 1012.5
20260905234642 78 280 0.9 4.3 0.27 0.27 0.27 1 1012.9
20260905233641 78 145 0.9 11.3 0.27 0.27 0.27 1 1012.5
20260905232641 79 175 2.6 11.3 0.27 0.27 0.27 1 1012.5
20260905231640 81 162 1.7 7.8 0.17 0.17 0.17 1 1013.2
20260905230639 83 93 1.7 9.6 0.03 0.03 0.03 41 1013.2
20260905225639 87 52 5.2 10.4 0.01 0.01 0.01 57 1013.2
20260905224638 91 51 4.3 12.2 0.00 0.00 0.00 57 1012.9
20260905223637 95 97 6.1 13.9 0.00 0.00 0.00 52 1012.5
20260905222636 98 168 1.7 5.2 0.00 0.00 0.00 51 1011.9
20260905221635 99 159 1.7 3.5 0.00 0.00 0.00 49 1011.9
20260905220603 98 56 1.7 4.3 0.00 0.00 0.00 46 1011.9
20260905215602 97 54 2.6 5.2 0.00 0.00 0.00 46 1011.9
20260905214602 98 339 1.7 4.3 0.00 0.00 0.00 46 1011.9
20260905213530 97 115 1.7 4.3 0.00 0.00 0.00 49 1012.2
20260905212529 97 69 2.6 4.3 0.00 0.00 0.00 50 1012.2
20260905211529 98 64 2.6 7.0 0.00 0.00 0.00 48 1012.2
20260905210528 99 21 3.5 7.0 0.00 0.00 0.00 46 1011.9
20260905205527 100 17 3.5 7.8 0.00 0.00 0.00 46 1012.2
20260905204527 100 282 1.7 8.7 0.00 0.11 0.00 47 1012.2
20260905203526 99 334 1.7 7.8 0.00 0.47 0.00 47 1012.2
20260905202525 99 321 1.7 8.7 0.00 0.48 0.00 46 1012.5
20260905201524 98 296 0.9 6.1 0.00 0.48 0.00 47 1012.5
20260905200524 97 21 0.9 7.8 0.00 0.48 0.00 50 1012.9
20260905195523 97 65 3.5 8.7 0.00 0.48 0.00 50 1012.9
20260905194522 98 53 3.5 9.6 0.00 0.48 0.00 49 1013.2
20260905193521 99 75 2.6 7.8 0.00 0.48 0.00 45 1013.2
20260905192520 98 336 0.9 7.8 0.00 0.48 0.00 48 1013.5
20260905191520 97 325 2.6 7.0 0.00 0.48 0.00 49 1013.5
20260905190519 97 14 3.5 7.8 0.00 0.48 0.00 51 1013.5
20260905185518 96 62 2.6 5.2 0.00 0.48 0.00 52 1013.9
20260905184517 95 80 1.7 7.8 0.00 0.48 0.00 52 1013.9
20260905183517 97 62 5.2 8.7 0.00 0.48 0.00 53 1014.2
20260905182516 97 354 0.9 5.2 0.00 0.48 0.00 53 1014.2
20260905181444 96 40 2.6 6.1 0.00 0.48 0.00 52 1014.6
20260905180443 96 55 3.5 7.0 0.00 0.48 0.00 55 1014.6
20260905175443 96 103 1.7 5.2 0.00 0.48 0.00 55 1014.6
20260905174340 95 63 2.6 7.0 0.00 0.48 0.00 56 1014.9
20260905173339 95 27 4.3 7.8 0.00 0.48 0.00 56 1014.9
20260905172338 94 85 2.6 7.0 0.00 0.48 0.00 56 1014.9
20260905171338 94 23 4.3 7.8 0.00 0.48 0.00 57 1015.2
20260905170337 94 73 5.2 8.7 0.00 0.48 0.00 57 1015.2
20260905165336 94 34 5.2 9.6 0.00 0.48 0.00 56 1015.2
20260905164335 94 78 2.6 8.7 0.00 0.48 0.00 57 1015.2
20260905163304 94 327 1.7 7.0 0.00 0.48 0.00 57 1015.6
20260905162305 93 339 0.9 6.1 0.00 0.48 0.00 57 1015.6
20260905161302 92 16 2.6 6.1 0.00 0.48 0.00 56 1015.9
20260905160301 91 284 2.6 5.2 0.00 0.48 0.00 55 1015.9
20260905155300 91 34 1.7 3.5 0.00 0.48 0.00 51 1015.9
20260905154300 89 330 1.7 3.5 0.00 0.48 0.00 46 1015.9
20260905153259 88 306 1.7 3.5 0.00 0.48 0.00 34 1015.9
20260905152258 86 35 0.9 3.5 0.00 0.48 0.00 26 1015.9
20260905151258 87 54 1.7 2.6 0.00 0.48 0.00 28 1015.9
20260905150257 86 23 0.0 3.5 0.00 0.48 0.00 20 1015.9
20260905145256 85 33 1.7 4.3 0.00 0.48 0.00 28 1016.3
20260905144255 85 43 3.5 5.2 0.00 0.48 0.00 4 1016.3
20260905143224 84 26 0.9 3.5 0.00 0.48 0.00 1 1016.3
20260905142223 82 42 2.6 3.5 0.00 0.48 0.00 1 1016.3
20260905141151 80 323 0.0 0.9 0.00 0.48 0.00 1 1016.3
20260905140150 78 322 0.9 0.9 0.00 0.48 0.00 1 1016.3
20260905135150 77 316 0.9 0.9 0.00 0.48 0.00 1 1016.6
20260905134149 76 316 0.9 0.9 0.00 0.48 0.00 1 1016.6
20260905133149 75 316 0.0 0.9 0.00 0.48 0.00 1 1016.6
20260905132147 74 316 0.0 1.7 0.00 0.48 0.00 1 1016.6
20260905131115 74 316 0.9 1.7 0.00 0.48 0.00 1 1016.6
20260905130114 73 309 0.9 0.9 0.00 0.48 0.00 1 1016.6
20260905125114 73 310 0.0 0.9 0.00 0.48 0.00 1 1016.6
20260905124113 72 311 0.0 0.9 0.00 0.48 0.00 1 1016.3
20260905123112 72 310 0.9 0.9 0.00 0.48 0.00 1 1016.3
20260905122111 72 310 0.0 0.9 0.00 0.48 0.00 1 1016.3
20260905121110 72 311 0.9 0.9 0.00 0.48 0.00 1 1016.3
20260905072939 72 309 0.0 0.0 0.00 0.48 0.00 1 1014.9
20260905071908 72 309 0.0 0.0 0.00 0.48 0.00 1 1014.9
20260905070907 72 309 0.0 0.0 0.00 0.48 0.00 1 1014.9
20260905065906 72 309 0.0 0.0 0.00 0.48 0.00 1 1014.9
20260905064905 72 309 0.0 0.0 0.00 0.48 0.00 1 1015.2
20260905063904 72 309 0.0 0.0 0.00 0.48 0.00 1 1015.2
20260905062904 72 311 0.0 0.0 0.00 0.48 0.00 1 1015.2
20260905061903 72 309 0.0 0.0 0.00 0.48 0.00 1 1015.2
20260905060902 72 309 0.0 0.0 0.00 0.48 0.00 1 1015.2
20260905055901 72 310 0.0 0.0 0.00 0.48 0.00 1 1015.2
20260905054901 72 309 0.0 0.0 0.00 0.48 0.00 1 1015.6
20260905053829 73 309 0.0 0.0 0.00 0.48 0.00 1 1015.6
20260905052829 73 309 0.0 0.0 0.00 0.48 0.00 1 1015.6